Regional Weather Roundup
Issued by NWS

Home | Current Version | Previous Version | Text Only | Print | Product List | Glossary Off
Versions: 1 2 3 4 5 6 7 8 9 10 11 12 13 14 15 16 17 18 19 20 21 22 23 24 25 26 27 28 29 30 31 32 33 34 35 36 37 38 39 40 41 42 43 44 45 46 47 48 49 50

000
ASUS43 KFSD 292202
RWRSD

WEATHER ROUNDUP FOR SOUTH DAKOTA
NATIONAL WEATHER SERVICE SIOUX FALLS SD
500 PM CDT FRI JUL 29 2016

NOTE: "FAIR" INDICATES FEW OR NO CLOUDS BELOW 12,000 FEET WITH NO
SIGNIFICANT WEATHER AND/OR OBSTRUCTIONS TO VISIBILITY.


SDZ001>005-009-010-012>017-292300-
NORTHWEST AND NORTH CENTRAL SOUTH DAKOTA

CITY           SKY/WX    TMP DP  RH WIND       PRES   REMARKS
BUFFALO          N/A     83  53  35 VRB5G16   29.96F
FAITH            N/A     79  53  40 SE7       30.02F
MOBRIDGE       PTSUNNY   84  57  39 SE10G17   29.99F
$$

SDZ012>016-024>037-041>051-057-063-072>074-292300-
SOUTHWEST AND SOUTH CENTRAL SOUTH DAKOTA

CITY           SKY/WX    TMP DP  RH WIND       PRES   REMARKS
RAPID CTY ARPT CLOUDY    71  58  63 S8        30.04F
PIERRE         SUNNY     82  56  40 SE10      29.99F
CUSTER         CLOUDY    68  53  58 E10G18    30.14F
ELLSWORTH AFB  MOSUNNY   73  59  60 S13       30.02F
PHILIP         CLOUDY    82  59  45 SE8       30.00F
PINE RIDGE     CLOUDY    82  57  42 E10       30.02F
WINNER         MOCLDY    81  58  45 SE12      30.04F
$$

SDZ004>011-016>023-039-040-292300-
NORTHEAST SOUTH DAKOTA

CITY           SKY/WX    TMP DP  RH WIND       PRES   REMARKS
ABERDEEN       NOT AVBL
WATERTOWN      PTSUNNY   78  55  44 S8        30.06F
BROOKINGS      MOSUNNY   76  55  48 NE10      30.06F
SISSETON         N/A     78  59  51 CALM      30.03F
$$

SDZ017-020-022-023-036>040-048>070-292300-
SOUTHEAST SOUTH DAKOTA

CITY           SKY/WX    TMP DP  RH WIND       PRES   REMARKS
SIOUX FALLS    MOSUNNY   77  53  43 E7        30.04F
HURON          MOSUNNY   83  53  35 E12       30.02F
CHAMBERLAIN    SUNNY     82  57  43 SE7       30.03F
MITCHELL       SUNNY     82  53  36 VRB3      30.03F
YANKTON        MOSUNNY   79  54  41 E6        30.02S
$$

ABBREVIATIONS USED IN REMARKS
   TC - TEMPERATURE IN CELSIUS
  WCI - WIND CHILL INDEX
   HX - HEAT INDEX
  VSB - VISIBILITY





USA.gov is the U.S. government's official web portal to all federal, state and local government web resources and services.